www.pogodaiklimat.ru

Погода и климат >> Архив погоды >> Австралия >> Южная Австралия >> Наллабор


ПОГОДА в Наллаборе

  • Прогноз погоды в Наллаборе
  • Монитор погоды в Наллаборе

АРХИВ ПОГОДЫ в Наллаборе

Время (UTC), дата Ветер
(напр.,м/с)
 
Видим.   Явления Облачность Т
(С)
Тd
(С)
f
(%)
Тe
(С)
Тes
(С)
Комфортность P
(гПа)
Po
(гПа)
Тmin
(С)
Tmax
(С)
R
(мм)
R24
(мм)
S
(см)
10 18.05 СЗ 5 н/о н/о +10.3 +1.7 55 +8 +8 1019.0 1011.2
11 18.05 СЗ 4 н/о н/о +10.2 +1.6 55 +8 +8 1019.5 1011.7
12 18.05 СЗ 4 н/о н/о +7.5 +1.1 64 +5 +5 1020.2 1012.4
13 18.05 З 5 н/о н/о +9.0 +1.7 60 +6 +6 1020.2 1012.4
14 18.05 З 6 н/о н/о +10.1 +1.0 53 +7 +7 1020.1 1012.3 +21.9
15 18.05 З 6 н/о н/о +8.8 +0.5 56 +5 +5 1020.3 1012.5
16 18.05 З 5 н/о н/о +6.8 +0.3 63 +3 +3 1020.1 1012.3
17 18.05 СЗ 4 н/о н/о +5.3 +0.3 70 +1 +1 1019.8 1012.0
18 18.05 СЗ 4 н/о н/о +5.5 +0.1 68 +2 +2 1020.0 1012.2
19 18.05 С 5 н/о н/о +4.8 +0.4 73 +1 +1 1019.9 1012.1
20 18.05 С 5 н/о н/о +5.0 0.0 70 +1 +1 1020.2 1012.4
21 18.05 С 6 н/о н/о +3.9 -0.3 74 -1 -1 1020.3 1012.5
22 18.05 СЗ 5 н/о н/о +4.5 +0.3 74 -0 -0 1020.7 1012.9
23 18.05 СЗ 6 н/о н/о +7.3 +0.7 63 +3 +3 1020.8 1013.0
00 19.05 СЗ 7 н/о н/о +12.2 +2.9 53 +10 +10 1020.9 1013.1
01 19.05 СЗ 8 н/о н/о +15.1 +4.2 48 +13 +13 1021.2 1013.4
02 19.05 З 9 н/о н/о +17.0 +5.0 45 +16 +16 1020.8 1013.0 +2.2
03 19.05 СЗ 9 н/о н/о +18.9 +5.7 42 +18 +18 1019.9 1012.1
04 19.05 СЗ 9 н/о н/о +20.1 +5.4 38 +20 +20 1019.3 1011.5
05 19.05 СЗ 9 н/о н/о +21.1 +5.1 35 +22 +22 комфорт 1018.7 1010.9
06 19.05 З 9 н/о н/о +21.4 +4.9 34 +22 +22 комфорт 1018.5 1010.7
07 19.05 З 8 н/о н/о +20.8 +5.2 36 +21 +21 комфорт 1018.8 1011.0
08 19.05 З 7 н/о н/о +19.7 +5.4 39 +20 +20 1019.3 1011.5
09 19.05 З 4 н/о н/о +15.6 +5.2 50 +15 +15 1020.0 1012.2
10 19.05 СЗ 2 н/о н/о +13.4 +7.0 65 +13 +13 1020.6 1012.8
11 19.05 СЗ 3 н/о н/о +11.6 +5.5 66 +10 +10 1021.3 1013.5
12 19.05 СЗ 4 н/о н/о +10.0 +5.0 71 +8 +8 1021.7 1013.9
13 19.05 СЗ 4 н/о н/о +9.2 +4.2 71 +7 +7 1021.8 1014.0
14 19.05 СЗ 4 н/о н/о +8.9 +4.1 72 +6 +6 1021.8 1014.0 +21.9
15 19.05 С 4 н/о н/о +7.2 +3.3 76 +4 +4 1021.8 1014.0
16 19.05 СЗ 4 н/о н/о +6.9 +3.2 77 +4 +4 1021.5 1013.7
17 19.05 СЗ 4 н/о н/о +6.0 +3.2 82 +2 +2 1021.4 1013.6
18 19.05 СЗ 4 н/о н/о +5.3 +3.0 85 +1 +1 1021.5 1013.7
19 19.05 СЗ 4 н/о н/о +4.7 +2.4 85 +1 +1 1021.3 1013.5
20 19.05 СЗ 3 1000 м 4/4 <50 м
[]
+4.4 +3.7 95 +1 +1 1021.2 1013.4
21 19.05 СЗ 4 н/о н/о +3.5 +3.4 99 -1 -1 1021.2 1013.4
22 19.05 СЗ 3 н/о н/о +3.2 +3.1 99 -1 -1 1021.5 1013.7
23 19.05 СЗ 3 1000 м 9/9 <50 м
[]
+6.4 +6.4 100 +3 +3 1022.2 1014.4
00 20.05 С 2 н/о н/о +11.8 +11.8 100 +10 +10 1022.2 1014.4
01 20.05 С 4 н/о н/о +16.7 +11.0 69 +16 +16 1022.5 1014.7
02 20.05 С 5 н/о н/о +19.1 +6.2 43 +19 +19 1022.1 1014.3 +3.2
03 20.05 С 5 н/о н/о +21.3 +3.0 30 +21 +21 комфорт 1021.2 1013.4
04 20.05 С 5 н/о н/о +22.2 +0.1 23 +22 +22 комфорт 1020.3 1012.5
05 20.05 С 5 н/о н/о +22.2 -1.1 21 +21 +21 комфорт 1019.6 1011.8
06 20.05 СЗ 4 н/о н/о +22.9 -1.9 19 +22 +22 комфорт 1019.2 1011.4
07 20.05 СЗ 3 н/о н/о +22.3 -1.7 20 +21 +21 комфорт 1019.0 1011.2
08 20.05 С 1 н/о н/о +21.4 -1.2 22 +21 +21 комфорт 1018.9 1011.1
09 20.05 С 4 н/о н/о +15.2 -0.9 33 +14 +14 1019.5 1011.7
10 20.05 С 5 н/о н/о +13.1 -1.2 37 +12 +12 1020.0 1012.2
11 20.05 С 6 н/о н/о +10.8 -0.9 44 +8 +8 1020.5 1012.7
12 20.05 С 5 н/о н/о +11.4 -1.0 42 +9 +9 1020.2 1012.4
13 20.05 С 5 н/о н/о +9.8 -0.4 49 +7 +7 1020.2 1012.4
14 20.05 С 5 н/о 1/0
[]
+10.0 -0.2 49 +8 +8 1020.2 1012.4 +23.4
15 20.05 С 5 н/о н/о +8.4 -0.4 54 +5 +5 1020.0 1012.2
16 20.05 С 5 н/о н/о +9.4 +0.1 52 +7 +7 1019.9 1012.1
17 20.05 С 5 н/о 6/0
[]
+8.8 0.0 54 +6 +6 1020.2 1012.4
18 20.05 С 5 н/о н/о +7.3 -0.4 58 +4 +4 1019.8 1012.0
19 20.05 С 5 н/о н/о +6.9 -0.5 59 +3 +3 1019.8 1012.0
20 20.05 С 4 н/о н/о +7.1 -0.1 60 +4 +4 1020.1 1012.3
21 20.05 С 5 н/о н/о +5.0 -0.6 67 +1 +1 1020.6 1012.8
22 20.05 С 4 н/о н/о +4.9 -0.7 67 +1 +1 1021.3 1013.5
23 20.05 С 4 н/о н/о +10.3 +1.2 53 +8 +8 1021.7 1013.9
00 21.05 З 5 н/о н/о +16.2 +2.9 41 +15 +15 1022.5 1014.7
01 21.05 З 4 н/о н/о +18.3 +2.2 34 +18 +18 1022.7 1014.9
02 21.05 З 3 н/о н/о +21.8 -0.2 23 +21 +21 комфорт 1022.6 1014.8 +4.5
03 21.05 З 3 н/о н/о +23.7 -4.4 15 +22 +22 комфорт 1021.9 1014.1
04 21.05 Ю 3 н/о н/о +25.2 -2.4 16 +23 +23 комфорт 1021.1 1013.3
05 21.05 Ю 6 н/о н/о +24.2 +4.0 27 +24 +24 комфорт 1020.9 1013.1
06 21.05 ЮВ 6 н/о н/о +22.9 +6.2 34 +23 +23 комфорт 1021.1 1013.3
07 21.05 ЮВ 6 н/о н/о +20.6 +11.8 57 +22 +22 комфорт 1021.8 1014.0
08 21.05 ЮВ 5 н/о н/о +18.6 +13.9 74 +19 +19 1022.2 1014.4
09 21.05 Ю 4 н/о н/о +15.5 +14.4 93 +14 +14 1022.8 1015.0
10 21.05 Ю 4 н/о н/о +13.8 +13.6 99 +12 +12 1023.6 1015.8
11 21.05 Ю 5 н/о н/о +13.5 +13.5 100 +12 +12 1024.2 1016.4
12 21.05 Ю 4 н/о н/о +13.1 +13.1 100 +11 +11 1024.7 1016.9
13 21.05 Ю 5 н/о н/о +12.4 +12.4 100 +10 +10 1024.7 1016.9
14 21.05 Ю 4 500 м н/о +12.1 +12.1 100 +10 +10 1025.3 1017.5 +26.2
15 21.05 Ю 5 н/о н/о +11.9 +11.9 100 +9 +9 1025.3 1017.5
16 21.05 Ю 4 н/о н/о +11.7 +11.7 100 +9 +9 1025.6 1017.8
17 21.05 Ю 5 500 м в посл. час дождь {туман} н/о +11.5 +11.5 100 +9 +9 1025.8 1018.0 0.2
18 21.05 Ю 5 н/о н/о +10.8 +9 +9 1025.7 1017.9
19 21.05 ЮВ 5 н/о н/о +10.9 +9 +9 1026.1 1018.3
20 21.05 ЮВ 4 300 м н/о +10.5 +9 +9 1026.0 1018.2
21 21.05 ЮВ 4 н/о н/о +11.0 +10 +10 1026.5 1018.7
22 21.05 ЮВ 4 н/о н/о +10.7 +9 +9 1026.9 1019.1
23 21.05 В 4 н/о {туман} н/о +13.4 +13 +13 1027.2 1019.4 0.4
00 22.05 СВ 3 н/о н/о +15.1 +15 +15 1027.7 1019.9
01 22.05 В 5 н/о н/о +17.9 +18 +18 1027.7 1019.9
02 22.05 В 7 н/о н/о +19.8 +13.7 68 +21 +21 комфорт 1027.0 1019.2 +10.0
03 22.05 В 6 н/о н/о +21.7 +11.4 52 +24 +24 комфорт 1026.3 1018.5
04 22.05 В 4 н/о н/о +22.6 +11.0 48 +25 +25 комфорт 1025.3 1017.5
05 22.05 ЮВ 4 н/о н/о +21.9 +12.7 56 +24 +24 комфорт 1024.8 1017.0
06 22.05 ЮВ 5 н/о н/о +21.8 +13.2 58 +24 +24 комфорт 1024.4 1016.6
07 22.05 ЮВ 7 н/о н/о +19.6 +14.6 73 +21 +21 комфорт 1024.5 1016.7
08 22.05 ЮВ 6 н/о н/о +17.6 +15.0 85 +17 +17 1024.4 1016.6
09 22.05 ЮВ 5 н/о н/о +15.5 +15.3 99 +14 +14 1024.7 1016.9
10 22.05 ЮВ 4 н/о н/о +14.0 +14.0 100 +12 +12 1025.1 1017.3
11 22.05 ЮВ 5 8000 м н/о +13.1 +13.1 100 +11 +11 1025.2 1017.4
12 22.05 ЮВ 5 н/о н/о +13.1 +13.1 100 +11 +11 1024.9 1017.1
13 22.05 ЮВ 4 н/о н/о +12.5 +12.5 100 +10 +10 1024.6 1016.8
14 22.05 ЮВ 5 200 м н/о +11.3 +11.3 100 +9 +9 1024.4 1016.6 +23.1
15 22.05 В 4 н/о н/о +10.8 +10.8 100 +8 +8 1024.4 1016.6
16 22.05 В 4 н/о н/о +10.5 +10.5 100 +8 +8 1024.3 1016.5
17 22.05 В 4 1500 м н/о +10.4 +10.4 100 +8 +8 1023.8 1016.0
18 22.05 В 5 н/о н/о +11.0 +9 +9 1023.3 1015.5
19 22.05 СВ 4 н/о н/о +9.7 +9.7 100 +7 +7 1022.6 1014.8
20 22.05 С 5 н/о {туман} н/о +9.0 +9.0 100 +5 +5 1022.6 1014.8
21 22.05 С 6 н/о н/о +10.7 +10.7 100 +7 +7 1022.8 1015.0
22 22.05 С 6 н/о н/о +10.6 +10.6 100 +7 +7 1022.5 1014.7
23 22.05 С 6 н/о {туман} н/о +12.4 +12.4 100 +10 +10 1022.2 1014.4 0.2
00 23.05 С 7 н/о н/о +16.8 +14.1 84 +16 +16 1021.8 1014.0
01 23.05 С 9 н/о н/о +23.2 +11.6 48 +26 +26 жарко 1021.3 1013.5
02 23.05 С 11 н/о н/о +27.7 +9.0 31 +28 +28 жарко 1021.0 1013.2 +8.6
03 23.05 СЗ 12 н/о н/о +30.0 +7.2 24 +29 +29 жарко 1019.7 1011.9
04 23.05 СЗ 10 н/о н/о +31.9 +5.4 19 +30 +30 жарко 1018.6 1010.8
05 23.05 СЗ 10 н/о н/о +31.9 +3.8 17 +29 +29 жарко 1017.7 1009.9
06 23.05 СЗ 9 н/о н/о +31.3 +1.6 15 +29 +29 жарко 1017.4 1009.6
07 23.05 СЗ 9 н/о н/о +31.2 +0.6 14 +28 +28 жарко 1017.2 1009.4
08 23.05 С 5 н/о 9/0
[]
+28.8 +2.1 18 +27 +27 жарко 1017.2 1009.4
09 23.05 С 5 н/о н/о +25.0 +2.4 23 +24 +24 комфорт 1017.4 1009.6
10 23.05 С 6 н/о н/о +24.6 +2.7 24 +24 +24 комфорт 1017.4 1009.6
11 23.05 ЮЗ 8 н/о 10/0
[]
+21.3 +10.8 51 +23 +23 комфорт 1019.4 1011.6
12 23.05 ЮЗ 7 н/о н/о +18.9 +13.7 72 +19 +19 1020.5 1012.7
13 23.05 ЮЗ 4 н/о н/о +18.0 +15.1 83 +18 +18 1020.3 1012.5
14 23.05 З 4 н/о 10/0
[]
+17.5 +15.3 87 +17 +17 1020.1 1012.3 +32.6
15 23.05 ЮЗ 4 н/о н/о +17.3 +16.0 92 +17 +17 1020.3 1012.5
16 23.05 З 4 н/о н/о +17.0 +16.8 99 +16 +16 1020.7 1012.9
17 23.05 ЮЗ 4 8000 м 9/0
[]
+16.2 +16.0 99 +15 +15 1020.4 1012.6
18 23.05 ЮЗ 4 н/о н/о +15.4 +15.4 100 +14 +14 1020.4 1012.6
19 23.05 ЮЗ 4 н/о н/о +15.2 +15.2 100 +14 +14 1020.2 1012.4
20 23.05 ЮЗ 5 н/о 1/0
[]
+14.9 +14.7 99 +13 +13 1020.2 1012.4
21 23.05 ЮЗ 4 н/о н/о +13.4 +13.2 99 +12 +12 1020.8 1013.0
22 23.05 ЮЗ 4 н/о н/о +12.5 +12.3 99 +10 +10 1021.3 1013.5
23 23.05 ЮЗ 4 н/о н/о +13.7 +13.7 100 +12 +12 1021.8 1014.0
00 24.05 ЮЗ 4 н/о н/о +17.4 +13.5 78 +17 +17 1022.3 1014.5
01 24.05 ЮЗ 6 н/о н/о +18.5 +12.7 69 +19 +19 1022.4 1014.6
02 24.05 ЮЗ 6 н/о н/о +19.4 +11.2 59 +20 +20 1022.1 1014.3 +11.9
03 24.05 Ю 6 н/о н/о +19.9 +11.9 60 +21 +21 комфорт 1021.5 1013.7
04 24.05 ЮЗ 5 н/о н/о +19.9 +11.4 58 +21 +21 комфорт 1020.8 1013.0
05 24.05 ЮЗ 5 н/о н/о +19.3 +11.3 60 +20 +20 1020.4 1012.6
06 24.05 ЮЗ 5 н/о н/о +18.8 +12.1 65 +19 +19 1020.6 1012.8
07 24.05 Ю 5 н/о н/о +19.1 +11.2 60 +20 +20 1020.8 1013.0
08 24.05 Ю 5 н/о н/о +17.4 +11.9 70 +17 +17 1021.2 1013.4
09 24.05 ЮЗ 3 н/о н/о +15.1 +11.9 81 +14 +14 1021.4 1013.6
10 24.05 Ю 4 н/о н/о +12.5 +11.1 91 +11 +11 1021.4 1013.6
11 24.05 Ю 4 н/о н/о +11.9 +11.7 99 +10 +10 1021.7 1013.9
12 24.05 ЮЗ 4 н/о н/о +12.4 +12.2 99 +10 +10 1021.9 1014.1
13 24.05 ЮЗ 3 н/о н/о +11.6 +11.4 99 +10 +10 1022.2 1014.4
14 24.05 Ю 2 500 м н/о +10.1 +10.1 100 +8 +8 1021.8 1014.0 +20.7
15 24.05 ЮВ 2 н/о н/о +12.1 +12.1 100 +11 +11 1021.4 1013.6
16 24.05 З 4 н/о н/о +6.6 +6.6 100 +3 +3 1021.3 1013.5
17 24.05 СЗ 4 1000 м н/о +6.9 +6.9 100 +3 +3 1021.1 1013.3
18 24.05 СЗ 3 н/о н/о +6.5 +6.5 100 +3 +3 1020.9 1013.1
19 24.05 СЗ 3 н/о н/о +6.3 +6.3 100 +3 +3 1020.8 1013.0
20 24.05 СЗ 3 400 м 10/10 <50 м
[]
+6.2 +6.2 100 +3 +3 1020.9 1013.1
21 24.05 СЗ 3 н/о н/о +6.1 +6.1 100 +3 +3 1021.3 1013.5
22 24.05 СЗ 4 н/о н/о +6.9 +6.9 100 +3 +3 1022.0 1014.2
23 24.05 З 4 100 м 10/10 <50 м
[]
+8.0 +6 +6 1022.4 1014.6
00 25.05 СЗ 4 н/о н/о +10.4 +9 +9 1022.9 1015.1
01 25.05 СЗ 5 н/о н/о +13.2 +12 +12 1023.1 1015.3
02 25.05 З 7 н/о туман местами 1/1 1500 м
[]
+18.1 +12.5 70 +18 +18 1022.7 1014.9 +6.1
03 25.05 ЮЗ 8 н/о н/о +18.6 +11.9 65 +18 +18 1022.1 1014.3
04 25.05 ЮЗ 8 н/о н/о +17.8 +13.1 74 +17 +17 1021.8 1014.0
05 25.05 ЮЗ 5 н/о {туман} 10/10 600 м
[]
+17.3 +12.6 74 +17 +17 1021.8 1014.0 0.2
06 25.05 ЮЗ 6 н/о н/о +17.5 +13.4 77 +17 +17 1021.8 1014.0
07 25.05 ЮЗ 7 н/о н/о +18.0 +12.0 68 +17 +17 1022.1 1014.3
08 25.05 Ю 6 н/о 1/1 1000 м
[]
+17.0 +12.1 73 +16 +16 1022.6 1014.8

 

Местоположение метеостанции Наллабор (Южная Австралия, Австралия): широта -31.45 долгота 130.90 высота над уровнем моря 65 м.

В архиве по умолчанию представлена погода в Наллаборе за последнюю неделю. Архивные данные за месяц целиком и за предыдущие месяцы, начиная с января 2011 года, Вы можете получить, выбрав интересующий диапазон дат из раскрывающегося списка и нажав кнопку "Ввод!".


*Определитесь, кто Вы:
робот инопланетянин человек

Внимание! Время в таблицах - всемирное. Для получения местного времени необходимо прибавить поправку, которая равна 9.5 ч.

Смотрите также архив погоды в соседних городах и на ближайших метеорологических станциях:

Погода в Евкле (Западная Австралия, Австралия) (193 км)
Погода в Форресте (Западная Австралия, Австралия) (274 км)
Погода в Сидуне (Южная Австралия, Австралия) (275 км)
Погода в Ред Рокс Пойнт (Западная Австралия, Австралия) (329 км)
Погода в Таркуле (Южная Австралия, Австралия) (360 км)
Погода в Миннипа Пирса (Южная Австралия, Австралия) (429 км)
Погода в Кубер-Педи (Южная Австралия, Австралия) (454 км)
Погода в Уудинне (Южная Австралия, Австралия) (463 км)
Погода в Колте (Южная Австралия, Австралия) (529 км)
Погода в Камминсе (Южная Австралия, Австралия) (547 км)

Пояснения к столбцам:

Ветер - указаны скорость ветра в м/с - средняя за 10 мин, порывы в срок и между сроками (в фигурных скобках) и направление, откуда дует ветер: С - северный, СВ - северо-восточный, В - восточный, ЮВ - юго-восточный, Ю - южный, ЮЗ - юго-западный, З - западный, СЗ - северо-западный.
Видимость - горизонтальная дальность видимости в метрах или километрах. При видимости от 1 до 10 км при отсутствии осадков обычно наблюдается дымка, при ухудшении видимости до 1 км и менее - туман. В сухую погоду видимость может ухудшаться дымом, пылью или мглою.
Явления - указаны атмосферные явления, наблюдавшиеся в срок или в последний час перед сроком; фигурными скобками обозначены явления, наблюдавшиеся между сроками (за 1-3 часа до срока); квадратными скобками обозначены град или гололедные отложения с указанием их диаметра в мм.
Облачность - указаны через наклонную черту общая и нижняя облачность в баллах и высота нижней границы облаков в метрах; квадратными скобками обозначены формы облаков: Ci - перистые, Cs - перисто-слоистые, Cc - перисто-кучевые, Ac - высококучевые, As - высокослоистые, Sc - слоисто-кучевые, Ns - слоисто-дождевые, Cu - кучевые, Cb - кучево-дождевые. Подробнее классификацию облаков см. в Атласе облаков (PDF).
T - Температура воздуха - температура, измеренная на высоте 2 м над землей.
Td - Температура точки росы - температура, при понижении до которой содержащийся в воздухе водяной пар достигнет насыщения.
f - Относительная влажность воздуха - влажноcть воздуха, измеренная на высоте 2 м над землей.
Te - Эффективная температура - температура, которую ощущает одетый по сезону человек в тени. Характеристика душности погоды. При расчете учитывается влияние влажности воздуха и скорости ветра на теплоощущения человека.
Tes - Эффективная температура на солнце - температура, которую ощущает человек, с поправкой на солнечный нагрев. Характеристика знойности погоды. Зависит от высоты солнца над горизонтом, облачности и скорости ветра. Ночью, в пасмурную погоду, а также при ветре 12 м/с и более поправка равна нулю.
P - Атмосферное давление - приведенное к уровню моря атмосферное давление.
Po - Атмосферное давление - измеренное на уровне метеостанции атмосферное давление.
Tmin - Минимальная температура - минимум температуры воздуха на высоте 2 м над землей.
Tmax - Максимальная температура - максимум температуры воздуха на высоте 2 м над землей.
R - Количество осадков - Количество выпавших осадков за период времени, мм. При наведении курсора мыши на число - период времени, за который выпало указанное количество осадков.
R24 - Количество осадков - Количество выпавших осадков за 24 часа, мм.
S - Снежный покров - Высота снежного покрова, см. При наведении курсора мыши на число - состояние снежного покрова и степень покрытия местности в баллах.